Regional Weather Roundup
Issued by NWS Sterling, VA

Home | Current Version | Previous Version | Graphics & Text | Print | Product List | Glossary On
Versions: 1 2 3 4 5 6 7 8 9 10 11 12 13 14 15 16 17 18 19 20 21 22 23 24 25 26 27 28 29 30 31 32 33 34 35 36 37 38 39 40 41 42 43 44 45 46 47 48 49 50
000
ASUS41 KLWX 261610
RWRLWX

REGIONAL WEATHER ROUNDUP
NATIONAL WEATHER SERVICE BALTIMORE MD/WASHINGTON DC
1200 PM EDT SUN APR 26 2015

Note: "FAIR" indicates few or no clouds below 12,000 feet
with no significant weather and/or obstructions to visibility.
 TC=TEMPERATURE CELSIUS

 * =Non NWS site. Station does not report precipitation (e.g. rain,
    snow, etc.), thunder, or fog.

DCZ001-MDZ009-015-VAZ040>042-051-053>054-261700-
WASHINGTON METRO

CITY           SKY/WX    TMP DP  RH WIND       PRES   REMARKS
WASHINGTON NAT MOSUNNY   59  36  42 CALM      29.73S
DULLES         MOSUNNY   56  34  43 N9G18     29.74R
ANDREWS AFB    SUNNY     56  37  47 N7        29.71S
FT BELVOIR     SUNNY     57  35  43 N5        29.73S
QUANTICO       SUNNY     55  40  56 E7        29.74S
COLLEGE PARK*  SUNNY     57  32  38 CALM      29.72S
LEESBURG*      SUNNY     57  36  44 N8        29.75S
MANASSAS*      SUNNY     57  39  51 N9G17     29.74R
GAITHERSBURG*  SUNNY     57  34  41 NW8       29.75F

$$

MDZ006>007-011-014-261700-
BALTIMORE METRO

CITY           SKY/WX    TMP DP  RH WIND       PRES   REMARKS
BWI AIRPORT    MOSUNNY   59  33  37 NE10G17   29.71S
MD SCIENCE CTR   N/A     59  30  33 MISG      29.72S
MARTIN STATE   MOSUNNY   61  34  36 NE5       29.73S
ANNAPOLIS      SUNNY     56  32  40 N10       29.72R
FORT MEADE*    SUNNY     57  32  38 N8        29.74S

$$

MDZ012-015-019>023-261700-
MARYLAND EASTERN SHORE

CITY           SKY/WX    TMP DP  RH WIND       PRES   REMARKS
OCEAN CITY     MOSUNNY   55  38  52 NE6       29.70R
SALISBURY      MOSUNNY   55  38  52 CALM      29.69S
BAY BRIDGE AP*   N/A    N/A N/A N/A NW8       29.72S
CAMBRIDGE*     SUNNY     55  41  58 W3        29.70S
EASTON*        SUNNY     59  41  51 NW8       29.74S

$$

MDZ017>025-261700-
SOUTHERN MARYLAND

CITY           SKY/WX    TMP DP  RH WIND       PRES   REMARKS
PATUXENT RIVER PTSUNNY   53  41  63 NW8       29.72R
ST INIGOES     CLOUDY    53  44  71 SW10      29.71S
LEONARDTOWN*   NOT AVBL

$$

MDZ003>005-261700-
NORTH CENTRAL MARYLAND

CITY           SKY/WX    TMP DP  RH WIND       PRES   REMARKS
FREDERICK*     SUNNY     59  28  31 NE7G17    29.76S
HAGERSTOWN APT SUNNY     55  30  38 NW9       29.74S
WESTMINSTER*   SUNNY     54  28  37 N7G16     29.72S

$$

MDZ501>502-261700-
WESTERN MARYLAND

CITY           SKY/WX    TMP DP  RH WIND       PRES   REMARKS
OAKLAND*       MOSUNNY   45  32  61 CALM      29.73R
CUMBERLAND*    SUNNY     55  30  38 N5        29.79S

$$

VAZ025>031-261700-
SHENANDOAH VALLEY

CITY           SKY/WX    TMP DP  RH WIND       PRES   REMARKS
WINCHESTER*    SUNNY     55  28  35 N6        29.75S
FRONT ROYAL*   FAIR      52  37  58 NE6       29.75F
LURAY*         FAIR      54  43  66 E3        29.75F
NEW MARKET*    FAIR      50  37  60 N5        29.75F
STAUNTON*      CLOUDY    49  38  66 NE6       29.76S
WAYNESBORO*    CLOUDY    44  39  82 CALM      29.75S

$$

WVZ021-048>050-054>055-261700-
EASTERN WEST VIRGINIA PANHANDLE

CITY           SKY/WX    TMP DP  RH WIND       PRES   REMARKS
MARTINSBURG    SUNNY     56  29  35 N9        29.75S
PETERSBURG*    SUNNY     52  36  54 CALM      29.77F

$$

VAZ036>039-050-261700-
CENTRAL FOOTHILLS

CITY           SKY/WX    TMP DP  RH WIND       PRES   REMARKS
CHARLOTTESVILL CLOUDY    52  39  61 VRB5      29.74S
CULPEPER*      MOSUNNY   57  41  54 N7        29.74F
ORANGE*        CLOUDY    52  41  66 N8        29.75F
GORDONSVILLE*  CLOUDY    52  40  64 NE5       29.73F
WARRENTON*     FAIR      57  41  53 N9        29.73F

$$

VAZ055>057-261700-
NORTH AND CENTRAL PIEDMONT

CITY           SKY/WX    TMP DP  RH WIND       PRES   REMARKS
FREDERICKSBRG* FAIR      55  42  61 N3        29.73F
STAFFORD*      SUNNY     54  38  54 CALM      29.77F

$$

NCZ024-NYZ072-PAZ021-071-VAZ022-071-261700-
OTHER REGIONAL OBSERVATIONS

CITY           SKY/WX    TMP DP  RH WIND       PRES   REMARKS
NEW YORK CITY  SUNNY     59  25  27 VRB3      29.72F
PHILADELPHIA   MOSUNNY   59  33  37 NE10      29.71F
PITTSBURGH     MOSUNNY   54  27  35 NE10G18   29.78S
ROANOKE        CLOUDY    46  42  86 VRB3      29.76S
RICHMOND       PTSUNNY   52  42  69 N6        29.74R
RALEIGH        CLOUDY    48  46  93 N7        29.73R

$$

ANZ530>537-261700-
MARINE OBSERVATIONS

STATION/POSITION TIME  TEMP    WIND        PRES
                       AIR SEA DIR/SP/G
                 (UTC) (F)     (DEG/KT/KT) (MB)
THOMAS PT LIGHT  1600   51 51  360/  5/  5 1007.3R
BALT KEY BRIDGE  1500   53      60/  5/  6 1006.2R
COVE POINT       1500   47     350/  9/ 11 1006.8R
LEWISETTA        1500   50 55              1006.1R
SOLOMONS ISLAND  1500      55                N/A
PINEY POINT      1500          320/  9/ 10   N/A

$$




USA.gov is the U.S. government's official web portal to all federal, state and local government web resources and services.